Lexington Weather

Lexington, Massachusetts, USA

34°F
4/16/2021 10:47am 
  • Lexington Conditions: Snow, Fog, Overcast
  • Temperature: 34.0°F / 1.1°CWarmer 0.2°F than last hour.
  • Dew Point: 32.7°FIncreased 0.2°Fsince last hour.
  • Relative Humidity: 95
  • Wind: Wind from N N 1 mph, 10-min avg: Calm, gust: 3 mph
  • Barometer: 29.47 inFalling 0.02  inHg/hr Falling Slowly
  • Visibility: ½ mile
  • Snow Today: 1.3 in
  •   

Regional Weather Roundup
for Boston / Norton, MA

        
000
ASUS41 KBOX 141404
RWRBOX

REGIONAL WEATHER ROUNDUP
NATIONAL WEATHER SERVICE BOSTON/NORTON MA
1000 AM EDT WED APR 14 2021

NOTE:  "FAIR" INDICATES FEW OR NO CLOUDS BELOW 12,000 FEET WITH NO 
SIGNIFICANT WEATHER AND/OR OBSTRUCTIONS TO VISIBILITY.

MAZALL-141500-
EASTERN MASSACHUSETTS
  
CITY           SKY/WX    TMP DP  RH WIND       PRES   REMARKS
BOSTON         MOSUNNY   50  38  63 E8        30.11S                  
BEVERLY        SUNNY     50  40  68 SE5       30.09F                  
LAWRENCE       MOSUNNY   51  40  65 NE7       30.10F                  
BEDFORD        MOSUNNY   52  39  61 E6        30.08F                  
BLUE HILL        N/A     50  38  63 SE8       30.06F                  
NORWOOD        PTSUNNY   54  38  54 VRB7      30.08F                  
MARSHFIELD     SUNNY     48  37  66 VRB7      30.10S                  
PLYMOUTH       CLOUDY    50  37  61 NE12      30.09S                  
TAUNTON        CLOUDY    53  38  56 CALM      30.08S                  
NEW BEDFORD    PTSUNNY   51  38  60 SE8       30.08S                  
$$

MAZALL-141500-
CAPE COD AND THE ISLANDS
  
CITY           SKY/WX    TMP DP  RH WIND       PRES   REMARKS
FALMOUTH       NOT AVBL                                               
HYANNIS        CLOUDY    49  39  68 N12       30.08S                  
CHATHAM        CLOUDY    48  36  63 NE7       30.10R                  
PROVINCETOWN   CLOUDY    47  40  76 NE9       30.11                   
NANTUCKET      CLOUDY    49  39  68 NE12      30.08F                  
MARTHAS VNYRD  CLOUDY    51  37  58 E7        30.09S                  
$$
 
MAZALL-141500-
CENTRAL AND WESTERN MASSACHUSETTS
  
CITY           SKY/WX    TMP DP  RH WIND       PRES   REMARKS
WORCESTER      CLOUDY    49  40  71 E6        30.05F                  
FITCHBURG      CLOUDY    52  39  61 SE6       30.07F                  
ORANGE         CLOUDY    52  40  63 E6        30.05F                  
SPRINGFIELD    PTSUNNY   56  41  57 SE3       30.03F                  
WESTFIELD      CLOUDY    55  42  61 N5        30.04F                  
NORTH ADAMS    SUNNY     60  44  55 W5        30.02F                  
PITTSFIELD     SUNNY     58  42  55 CALM      30.01F                  
$$
 
RIZALL-141500-
RHODE ISLAND
  
CITY           SKY/WX    TMP DP  RH WIND       PRES   REMARKS
PROVIDENCE     NOT AVBL                                               
NEWPORT        CLOUDY    51  41  68 S8        30.07F                  
BLOCK ISLAND   CLOUDY    47  41  80 S10       30.08F                  
SMITHFIELD     MOSUNNY   52  44  74 VRB5      30.07F                  
WESTERLY       CLOUDY    46  43  89 SE7       30.07S                  
$$
 
CTZALL-141500-
CONNECTICUT
  
CITY           SKY/WX    TMP DP  RH WIND       PRES   REMARKS
BRADLEY INTL   PTSUNNY   54  41  61 SE3       30.04F                  
HARTFORD       CLOUDY    54  41  61 E5        30.04F                  
BRIDGEPORT     SUNNY     51  44  77 SW7       30.05F                  
DANBURY        SUNNY     63  42  46 VRB3      30.04F                  
GROTON         PTSUNNY   50  43  77 SE6       30.06F                  
NEW HAVEN      SUNNY     53  46  77 SW6       30.04F                  
CHESTER        FAIR      63  43  48 CALM      30.04F                  
MERIDEN        SUNNY     60  40  47 W5        30.03F                  
WILLIMANTIC    CLOUDY    54  41  61 CALM      30.05F                  
OXFORD         SUNNY     58  45  62 CALM      30.05F                  
$$

MEZ002-015-021-024-NHZ003-005-008-011-012-014-VTZ005-008-141500-
NORTHERN NEW ENGLAND
  
CITY           SKY/WX    TMP DP  RH WIND       PRES   REMARKS
PORTLAND ME    PTSUNNY   48  39  71 CALM      30.10F                  
BANGOR ME      SUNNY     48  29  47 N10       30.09F                  
CONCORD NH     CLOUDY    51  38  60 VRB7      30.07F                  
MANCHESTER NH  PTSUNNY   52  38  58 CALM      30.06F                  
NASHUA NH      PTSUNNY   53  40  61 E8        30.08F                  
PORTSMOUTH NH  CLOUDY    48  38  68 CALM      30.11F                  
JAFFREY NH     CLOUDY    49  41  74 CALM      30.06S                  
KEENE NH       CLOUDY    52  42  69 CALM      30.05F                  
BURLINGTON VT  MOSUNNY   56  33  42 N7        30.03F                  
MT. WASHINGTON PTSUNNY   34  10  37 NW36        N/A  WCI  19          
$$

NYZ052-076-141500-
EASTERN NEW YORK
  
CITY           SKY/WX    TMP DP  RH WIND       PRES   REMARKS
ALBANY         MOSUNNY   57  43  59 CALM      30.03F                  
NEW YORK CITY  MOSUNNY   60  43  53 CALM      30.03F                  
$$
 
ANZALL-141500-
MARINE OBSERVATIONS
  
STATION/POSITION TIME  TEMP    WIND        PRES    VSBY  WAVE
                       AIR SEA DIR/SP/G                  HT/PER
                 (UTC) (F)     (DEG/KT/KT) (MB)    (MI)  (FT/S)
BOSTON BUOY      1340   44 44   40/  6/  8 1020.0S
BUZZARDS BAY     1300          210/  5/  5 1019.9R
NANTUCKET SOUND  1340      47                N/A
MASS BAY-STELLWA NOT AVBL
ISLE OF SHOALS   1300   44      70/  6/  6 1019.1R
S OF BLOCK IS    1326      44                N/A           3/13
$$

......................KEY.........................
  SKY/WX - SKY CONDITION/PRESENT WEATHER
  TMP    - TEMPERATURE IN FAHRENHEIT
  DWPT   - DEWPOINT IN FAHRENHEIT
  RH     - RELATIVE HUMIDITY IN PERCENT
  WIND   - DIRECTION AND SPEED IN MPH
  PRES   - MEAN SEA LEVEL PRESSURE IN INCHES OF HG
  WCI    - WIND CHILL INDEX
  VSB    - VISIBILITY IN MILES
  HX     - HEAT INDEX
  TC     - TEMPERATURE IN CELSIUS
  VRB    - VARIABLE WIND DIRECTION
  N/A    - NOT AVAILABLE
  
      

Other recent Regional Weather Roundups

Fri Apr 16, 10:05am

Fri Apr 16, 9:04am

Fri Apr 16, 8:04am

Fri Apr 16, 7:04am

Fri Apr 16, 6:04am

Fri Apr 16, 5:04am

Fri Apr 16, 4:04am

Fri Apr 16, 3:04am

Fri Apr 16, 2:04am

Fri Apr 16, 1:04am

Fri Apr 16, 12:04am

Thu Apr 15, 11:05pm

Thu Apr 15, 10:04pm

Thu Apr 15, 9:04pm

Thu Apr 15, 8:04pm

Thu Apr 15, 7:05pm

Thu Apr 15, 6:04pm

Thu Apr 15, 5:05pm

Thu Apr 15, 4:04pm

Thu Apr 15, 3:05pm

Thu Apr 15, 2:04pm

Thu Apr 15, 1:05pm

Thu Apr 15, 12:04pm

Thu Apr 15, 11:04am

Thu Apr 15, 10:05am

Thu Apr 15, 9:04am

Thu Apr 15, 8:04am

Thu Apr 15, 7:04am

Thu Apr 15, 6:04am

Thu Apr 15, 5:04am

Thu Apr 15, 4:04am

Thu Apr 15, 3:04am

Thu Apr 15, 2:04am

Thu Apr 15, 1:04am

Thu Apr 15, 12:04am

Wed Apr 14, 11:04pm

Wed Apr 14, 10:04pm

Wed Apr 14, 9:04pm

Wed Apr 14, 8:04pm

Wed Apr 14, 7:04pm

Wed Apr 14, 6:04pm

Wed Apr 14, 5:05pm

Wed Apr 14, 4:04pm

Wed Apr 14, 3:05pm

Wed Apr 14, 2:04pm

Wed Apr 14, 1:05pm

Wed Apr 14, 12:04pm

Wed Apr 14, 11:04am

Wed Apr 14, 9:04am

Wed Apr 14, 8:04am

Wed Apr 14, 7:04am

Wed Apr 14, 6:04am

Wed Apr 14, 5:04am

Wed Apr 14, 4:04am

Wed Apr 14, 3:04am

Wed Apr 14, 2:04am

Wed Apr 14, 1:04am

Wed Apr 14, 12:04am

Tue Apr 13, 11:04pm

Tue Apr 13, 10:05pm

Tue Apr 13, 9:05pm

Tue Apr 13, 8:05pm

Tue Apr 13, 7:04pm

Tue Apr 13, 6:04pm

Tue Apr 13, 5:05pm

Tue Apr 13, 4:04pm

Tue Apr 13, 3:04pm

Tue Apr 13, 2:05pm

Tue Apr 13, 1:04pm

Tue Apr 13, 12:05pm

Tue Apr 13, 11:05am

Tue Apr 13, 10:04am

Tue Apr 13, 9:04am

Tue Apr 13, 8:04am

Tue Apr 13, 7:04am

Tue Apr 13, 6:04am

Tue Apr 13, 5:04am

Tue Apr 13, 4:04am

Tue Apr 13, 3:04am

Tue Apr 13, 2:04am

Tue Apr 13, 1:04am

Tue Apr 13, 12:05am

Mon Apr 12, 11:04pm

Mon Apr 12, 10:04pm

Mon Apr 12, 9:04pm

Mon Apr 12, 8:04pm

Mon Apr 12, 7:05pm

Mon Apr 12, 6:04pm

Mon Apr 12, 5:04pm

Mon Apr 12, 4:04pm

Mon Apr 12, 3:05pm

Mon Apr 12, 2:04pm

Mon Apr 12, 1:05pm

Mon Apr 12, 12:04pm

Mon Apr 12, 11:04am

Mon Apr 12, 10:04am

Mon Apr 12, 9:04am

Mon Apr 12, 8:04am

Mon Apr 12, 7:04am

Mon Apr 12, 6:04am

Mon Apr 12, 5:04am

Mon Apr 12, 4:04am

Mon Apr 12, 3:04am

Mon Apr 12, 2:04am

Mon Apr 12, 1:05am

Mon Apr 12, 12:04am

Sun Apr 11, 11:04pm

Sun Apr 11, 10:04pm

Sun Apr 11, 9:04pm

Sun Apr 11, 8:04pm

Sun Apr 11, 7:04pm

Sun Apr 11, 6:05pm

Sun Apr 11, 5:05pm

Sun Apr 11, 4:04pm

Sun Apr 11, 3:05pm

Sun Apr 11, 2:05pm

Sun Apr 11, 1:05pm

Sun Apr 11, 12:04pm

Sun Apr 11, 11:05am

Sun Apr 11, 10:05am

Sun Apr 11, 9:04am

Sun Apr 11, 8:04am

Sun Apr 11, 7:04am

Sun Apr 11, 6:04am

Sun Apr 11, 5:04am

Sun Apr 11, 4:04am

Sun Apr 11, 3:04am

Sun Apr 11, 2:04am

Sun Apr 11, 1:05am

Sun Apr 11, 12:04am

Sat Apr 10, 11:05pm

Sat Apr 10, 10:04pm

Sat Apr 10, 9:04pm

Sat Apr 10, 8:04pm

Sat Apr 10, 7:05pm

Sat Apr 10, 6:04pm

Sat Apr 10, 5:04pm

Sat Apr 10, 4:04pm

Sat Apr 10, 3:04pm

Sat Apr 10, 2:05pm

Sat Apr 10, 1:04pm

Sat Apr 10, 12:04pm

Sat Apr 10, 11:04am

Sat Apr 10, 10:04am

Sat Apr 10, 9:04am

Sat Apr 10, 8:04am

Sat Apr 10, 7:04am

Sat Apr 10, 6:04am

Sat Apr 10, 5:04am

Sat Apr 10, 4:04am

Sat Apr 10, 3:04am

Sat Apr 10, 2:04am

Sat Apr 10, 1:05am

Sat Apr 10, 12:04am

Fri Apr 9, 11:04pm

Fri Apr 9, 10:05pm

Fri Apr 9, 9:04pm

Fri Apr 9, 8:05pm

Fri Apr 9, 7:05pm

Fri Apr 9, 6:04pm

Fri Apr 9, 5:04pm

Fri Apr 9, 4:05pm

Fri Apr 9, 3:05pm

Fri Apr 9, 2:04pm

Fri Apr 9, 1:04pm

Fri Apr 9, 12:04pm

Fri Apr 9, 11:05am

Meta data:

ID: 7c5690ce-4371-4a37-9dd9-e085958f7307
Link: https://api.weather.gov/products/7c5690ce-4371-4a37-9dd9-e085958f7307